Voltar ao catálogo

STARLINK-35897

AtivoComunicaçõesVLEO
NORAD 66501·PAYLOAD·🇺🇸 United States

Lançado Nov 15, 2025 de Cape Canaveral Space Force Station

Loading…

Próximas Passagens (próximas 24 horas)

TLE

AtualizadoSource: CelesTrak SupGP

Época: Sep 14, 2026, 14:28 UTC

1 66501C 25263S   26257.60326389 -.00051112  00000+0 -18517-2 0  2577
2 66501  43.0043   3.8561 0001480 276.9533 323.4251 15.27596830    12

Acompanhe STARLINK-35897 em tempo real com AllMySat

Download on the App Store